Time,TemperatureF,DewpointF,PressureIn,WindDirection,WindDirectionDegrees,WindSpeedMPH,WindSpeedGustMPH,Humidity,HourlyPrecipIn,Conditions,Clouds,dailyrainin,SoftwareType,DateUTC
2013-02-25 00:00:00,35.8,26.6,30.01,NE,45,0.0,0.0,69,0.00,FEW,,0.00,WeatherDisplay:10.37,2013-02-25 06:00:00,
2013-02-25 00:05:00,35.6,26.8,30.01,WNW,292,0.0,0.0,70,0.00,SCT,,0.00,WeatherDisplay:10.37,2013-02-25 06:05:00,
2013-02-25 00:10:00,35.6,26.8,30.01,WNW,292,0.0,0.0,70,0.00,SCT,,0.00,WeatherDisplay:10.37,2013-02-25 06:10:00,
2013-02-25 00:15:00,35.6,26.8,30.01,WNW,292,0.0,0.0,70,0.00,SCT,,0.00,WeatherDisplay:10.37,2013-02-25 06:15:00,
2013-02-25 00:20:00,35.4,26.6,30.01,WNW,292,0.0,0.0,70,0.00,SCT,,0.00,WeatherDisplay:10.37,2013-02-25 06:20:00,
2013-02-25 00:25:00,35.4,26.9,30.01,NW,315,0.0,0.0,71,0.00,SCT,,0.00,WeatherDisplay:10.37,2013-02-25 06:25:00,
2013-02-25 00:30:00,35.1,26.6,30.01,NE,45,0.0,0.0,71,0.00,SCT,,0.00,WeatherDisplay:10.37,2013-02-25 06:30:00,
2013-02-25 00:35:00,35.1,26.6,30.01,NW,315,0.0,0.0,71,0.00,SCT,,0.00,WeatherDisplay:10.37,2013-02-25 06:35:00,
2013-02-25 00:40:00,34.9,26.4,30.01,NNE,22,0.0,0.0,71,0.00,SCT,,0.00,WeatherDisplay:10.37,2013-02-25 06:40:00,
2013-02-25 00:45:00,34.7,26.3,30.01,South,180,0.0,0.0,71,0.00,SCT,,0.00,WeatherDisplay:10.37,2013-02-25 06:45:00,
2013-02-25 00:50:00,34.7,26.6,30.01,SSW,202,0.0,0.0,72,0.00,SCT,,0.00,WeatherDisplay:10.37,2013-02-25 06:50:00,
2013-02-25 00:55:00,34.7,26.6,30.01,SSW,202,0.0,0.0,72,0.00,SCT,,0.00,WeatherDisplay:10.37,2013-02-25 06:55:00,
2013-02-25 01:00:00,34.3,26.2,30.01,WSW,248,0.0,0.0,72,0.00,SCT,,0.00,WeatherDisplay:10.37,2013-02-25 07:00:00,
2013-02-25 01:05:00,34.2,26.1,30.01,WSW,248,0.0,0.0,72,0.00,BKN,,0.00,WeatherDisplay:10.37,2013-02-25 07:05:00,
2013-02-25 01:10:00,34.2,26.1,30.02,WSW,248,0.0,0.0,72,0.00,BKN,,0.00,WeatherDisplay:10.37,2013-02-25 07:10:00,
2013-02-25 01:15:00,34.0,26.2,30.02,WSW,248,0.0,0.0,73,0.00,BKN,,0.00,WeatherDisplay:10.37,2013-02-25 07:15:00,
2013-02-25 01:20:00,34.0,26.2,30.02,WSW,248,0.0,0.0,73,0.00,BKN,,0.00,WeatherDisplay:10.37,2013-02-25 07:20:00,
2013-02-25 01:25:00,34.2,26.4,30.02,WSW,248,0.0,0.0,73,0.00,BKN,,0.00,WeatherDisplay:10.37,2013-02-25 07:25:00,
2013-02-25 01:30:00,34.0,26.2,30.03,WSW,248,0.0,0.0,73,0.00,BKN,,0.00,WeatherDisplay:10.37,2013-02-25 07:30:00,
2013-02-25 01:35:00,34.0,26.2,30.03,WSW,248,0.0,0.0,73,0.00,BKN,,0.00,WeatherDisplay:10.37,2013-02-25 07:35:00,
2013-02-25 01:40:00,33.6,26.2,30.03,WSW,248,0.0,0.0,74,0.00,BKN,,0.00,WeatherDisplay:10.37,2013-02-25 07:40:00,
2013-02-25 01:45:00,33.8,26.4,30.03,WSW,248,0.0,0.0,74,0.00,BKN,,0.00,WeatherDisplay:10.37,2013-02-25 07:45:00,
2013-02-25 01:50:00,33.6,26.2,30.03,WSW,248,0.0,0.0,74,0.00,BKN,,0.00,WeatherDisplay:10.37,2013-02-25 07:50:00,
2013-02-25 01:55:00,33.6,26.2,30.03,WSW,248,0.0,0.0,74,0.00,BKN,,0.00,WeatherDisplay:10.37,2013-02-25 07:55:00,
2013-02-25 02:00:00,33.6,26.2,30.03,WSW,248,0.0,0.0,74,0.00,BKN,,0.00,WeatherDisplay:10.37,2013-02-25 08:00:00,
2013-02-25 02:05:00,33.4,26.0,30.03,WSW,248,0.0,0.0,74,0.00,BKN,,0.00,WeatherDisplay:10.37,2013-02-25 08:05:00,
2013-02-25 02:10:00,33.4,26.0,30.03,WSW,248,0.0,0.0,74,0.00,BKN,,0.00,WeatherDisplay:10.37,2013-02-25 08:10:00,
2013-02-25 02:15:00,33.4,26.0,30.03,WSW,248,0.0,0.0,74,0.00,BKN,,0.00,WeatherDisplay:10.37,2013-02-25 08:15:00,
2013-02-25 02:20:00,33.3,26.2,30.03,East,90,0.0,0.0,75,0.00,BKN,,0.00,WeatherDisplay:10.37,2013-02-25 08:20:00,
2013-02-25 02:25:00,33.4,26.4,30.03,WSW,248,0.0,0.0,75,0.00,BKN,,0.00,WeatherDisplay:10.37,2013-02-25 08:25:00,
2013-02-25 02:30:00,33.6,26.5,30.02,SSW,202,0.0,0.0,75,0.00,BKN,,0.00,WeatherDisplay:10.37,2013-02-25 08:30:00,
2013-02-25 02:35:00,33.6,26.5,30.02,SSW,202,0.0,0.0,75,0.00,BKN,,0.00,WeatherDisplay:10.37,2013-02-25 08:35:00,
2013-02-25 02:40:00,33.4,26.4,30.02,WNW,292,0.0,0.0,75,0.00,BKN,,0.00,WeatherDisplay:10.37,2013-02-25 08:40:00,
2013-02-25 02:45:00,33.4,26.4,30.02,ENE,68,0.0,0.0,75,0.00,BKN,,0.00,WeatherDisplay:10.37,2013-02-25 08:45:00,
2013-02-25 02:50:00,33.4,26.4,30.02,ENE,68,0.0,0.0,75,0.00,BKN,,0.00,WeatherDisplay:10.37,2013-02-25 08:50:00,
2013-02-25 02:55:00,33.4,26.4,30.02,WNW,292,0.0,0.0,75,0.00,BKN,,0.00,WeatherDisplay:10.37,2013-02-25 08:55:00,
2013-02-25 03:00:00,33.6,26.5,30.02,WNW,292,0.0,0.0,75,0.00,BKN,,0.00,WeatherDisplay:10.37,2013-02-25 09:00:00,
2013-02-25 03:05:00,33.6,26.5,30.02,WNW,292,0.0,0.0,75,0.00,BKN,,0.00,WeatherDisplay:10.37,2013-02-25 09:05:00,
2013-02-25 03:10:00,33.6,26.5,30.01,WNW,292,0.0,0.0,75,0.00,BKN,,0.00,WeatherDisplay:10.37,2013-02-25 09:10:00,
2013-02-25 03:15:00,33.6,26.2,30.01,ESE,112,0.0,0.0,74,0.00,BKN,,0.00,WeatherDisplay:10.37,2013-02-25 09:15:00,
2013-02-25 03:20:00,33.6,26.2,30.01,ENE,68,0.0,0.0,74,0.00,BKN,,0.00,WeatherDisplay:10.37,2013-02-25 09:20:00,
2013-02-25 03:25:00,33.4,26.0,30.01,ENE,68,0.0,0.0,74,0.00,BKN,,0.00,WeatherDisplay:10.37,2013-02-25 09:25:00,
2013-02-25 03:30:00,33.4,26.4,30.01,WNW,292,0.0,0.0,75,0.00,BKN,,0.00,WeatherDisplay:10.37,2013-02-25 09:30:00,
2013-02-25 03:35:00,33.3,26.2,30.01,NE,45,0.0,0.0,75,0.00,BKN,,0.00,WeatherDisplay:10.37,2013-02-25 09:35:00,
2013-02-25 03:40:00,33.3,26.2,30.01,East,90,0.0,0.0,75,0.00,BKN,,0.00,WeatherDisplay:10.37,2013-02-25 09:40:00,
2013-02-25 03:45:00,33.3,26.2,30.01,North,0,0.0,0.0,75,0.00,BKN,,0.00,WeatherDisplay:10.37,2013-02-25 09:45:00,
2013-02-25 03:50:00,33.3,26.2,30.01,West,270,0.0,0.0,75,0.00,BKN,,0.00,WeatherDisplay:10.37,2013-02-25 09:50:00,
2013-02-25 03:55:00,33.3,26.2,30.01,NE,45,0.0,0.0,75,0.00,BKN,,0.00,WeatherDisplay:10.37,2013-02-25 09:55:00,
2013-02-25 04:00:00,33.3,26.2,30.01,East,90,0.0,0.0,75,0.00,BKN,,0.00,WeatherDisplay:10.37,2013-02-25 10:00:00,
2013-02-25 04:05:00,32.9,25.8,30.01,ENE,68,0.0,0.0,75,0.00,BKN,,0.00,WeatherDisplay:10.37,2013-02-25 10:05:00,
2013-02-25 04:10:00,33.3,26.2,30.00,WNW,292,0.0,0.0,75,0.00,BKN,,0.00,WeatherDisplay:10.37,2013-02-25 10:10:00,
2013-02-25 04:11:00,33.3,26.2,30.00,ESE,112,0.0,0.0,75,0.00,BKN,,0.00,WeatherDisplay:10.37,2013-02-25 10:11:00,
2013-02-25 04:15:00,33.3,26.2,30.00,NE,45,0.0,0.0,75,0.00,BKN,,0.00,WeatherDisplay:10.37,2013-02-25 10:15:00,
2013-02-25 04:20:00,33.3,26.2,30.00,SSE,158,0.0,0.0,75,0.00,BKN,,0.00,WeatherDisplay:10.37,2013-02-25 10:20:00,
2013-02-25 04:25:00,33.4,26.7,30.00,NE,45,0.0,0.0,76,0.00,BKN,,0.00,WeatherDisplay:10.37,2013-02-25 10:25:00,
2013-02-25 04:30:00,33.4,26.4,30.01,South,180,0.0,0.0,75,0.00,BKN,,0.00,WeatherDisplay:10.37,2013-02-25 10:30:00,
2013-02-25 04:35:00,33.3,26.2,30.01,West,270,0.0,0.0,75,0.00,BKN,,0.00,WeatherDisplay:10.37,2013-02-25 10:35:00,
2013-02-25 04:40:00,33.3,26.2,30.01,ENE,68,0.0,0.0,75,0.00,BKN,,0.00,WeatherDisplay:10.37,2013-02-25 10:40:00,
2013-02-25 04:45:00,33.1,26.0,30.01,North,0,0.0,0.0,75,0.00,BKN,,0.00,WeatherDisplay:10.37,2013-02-25 10:45:00,
2013-02-25 04:50:00,33.3,26.2,30.01,North,0,0.0,0.0,75,0.00,BKN,,0.00,WeatherDisplay:10.37,2013-02-25 10:50:00,
2013-02-25 04:55:00,33.1,26.0,30.01,SW,225,0.0,0.0,75,0.00,BKN,,0.00,WeatherDisplay:10.37,2013-02-25 10:55:00,
2013-02-25 05:00:00,33.3,26.2,30.01,SW,225,0.0,0.0,75,0.00,BKN,,0.00,WeatherDisplay:10.37,2013-02-25 11:00:00,
2013-02-25 05:05:00,33.6,26.5,30.01,West,270,0.0,0.0,75,0.00,BKN,,0.00,WeatherDisplay:10.37,2013-02-25 11:05:00,
2013-02-25 05:10:00,33.4,26.4,30.00,WNW,292,0.0,0.0,75,0.00,BKN,,0.00,WeatherDisplay:10.37,2013-02-25 11:10:00,
2013-02-25 05:15:00,33.4,26.4,30.00,WNW,292,0.0,0.0,75,0.00,BKN,,0.00,WeatherDisplay:10.37,2013-02-25 11:15:00,
2013-02-25 05:20:00,33.4,26.4,30.00,WNW,292,0.0,0.0,75,0.00,BKN,,0.00,WeatherDisplay:10.37,2013-02-25 11:20:00,
2013-02-25 05:25:00,33.4,26.4,30.00,WNW,292,0.0,0.0,75,0.00,BKN,,0.00,WeatherDisplay:10.37,2013-02-25 11:25:00,
2013-02-25 05:30:00,33.3,26.2,30.00,WNW,292,0.0,0.0,75,0.00,BKN,,0.00,WeatherDisplay:10.37,2013-02-25 11:30:00,
2013-02-25 05:31:00,33.4,26.4,30.00,WNW,292,0.0,0.0,75,0.00,BKN,,0.00,WeatherDisplay:10.37,2013-02-25 11:31:00,
2013-02-25 05:35:00,33.4,26.4,30.00,WNW,292,0.0,0.0,75,0.00,BKN,,0.00,WeatherDisplay:10.37,2013-02-25 11:35:00,
2013-02-25 05:40:00,33.4,26.4,30.00,WNW,292,0.0,0.0,75,0.00,BKN,,0.00,WeatherDisplay:10.37,2013-02-25 11:40:00,
2013-02-25 05:45:00,33.4,26.4,30.00,WNW,292,0.0,0.0,75,0.00,BKN,,0.00,WeatherDisplay:10.37,2013-02-25 11:45:00,
2013-02-25 05:50:00,33.3,26.2,29.99,WNW,292,0.0,0.0,75,0.00,BKN,,0.00,WeatherDisplay:10.37,2013-02-25 11:50:00,
2013-02-25 05:55:00,33.3,26.2,29.99,WNW,292,0.0,0.0,75,0.00,BKN,,0.00,WeatherDisplay:10.37,2013-02-25 11:55:00,
2013-02-25 06:00:00,33.1,26.0,29.99,WNW,292,0.0,0.0,75,0.00,BKN,,0.00,WeatherDisplay:10.37,2013-02-25 12:00:00,
2013-02-25 06:05:00,33.3,26.2,29.99,WNW,292,0.0,0.0,75,0.00,BKN,,0.00,WeatherDisplay:10.37,2013-02-25 12:05:00,
2013-02-25 06:10:00,33.3,26.2,29.97,WNW,292,0.0,0.0,75,0.00,BKN,,0.00,WeatherDisplay:10.37,2013-02-25 12:10:00,
2013-02-25 06:15:00,33.3,26.2,29.97,WNW,292,0.0,0.0,75,0.00,BKN,,0.00,WeatherDisplay:10.37,2013-02-25 12:15:00,
2013-02-25 06:20:00,32.9,25.8,29.97,WNW,292,0.0,0.0,75,0.00,BKN,,0.00,WeatherDisplay:10.37,2013-02-25 12:20:00,
2013-02-25 06:25:00,32.9,25.8,29.97,WNW,292,0.0,0.0,75,0.00,BKN,,0.00,WeatherDisplay:10.37,2013-02-25 12:25:00,
2013-02-25 06:30:00,32.7,25.7,29.97,WNW,292,0.0,0.0,75,0.00,BKN,,0.00,WeatherDisplay:10.37,2013-02-25 12:30:00,
2013-02-25 06:35:00,32.7,25.7,29.97,WNW,292,0.0,0.0,75,0.00,BKN,,0.00,WeatherDisplay:10.37,2013-02-25 12:35:00,
2013-02-25 06:40:00,32.7,25.7,29.97,WNW,292,0.0,0.0,75,0.00,BKN,,0.00,WeatherDisplay:10.37,2013-02-25 12:40:00,
2013-02-25 06:45:00,32.5,25.5,29.97,WNW,292,0.0,0.0,75,0.00,BKN,,0.00,WeatherDisplay:10.37,2013-02-25 12:45:00,
2013-02-25 06:53:00,32.5,25.5,29.97,WNW,292,0.0,0.0,75,0.00,BKN,,0.00,WeatherDisplay:10.37,2013-02-25 12:53:00,
2013-02-25 06:58:00,32.5,25.5,29.97,WNW,292,0.0,0.0,75,0.00,BKN,,0.00,WeatherDisplay:10.37,2013-02-25 12:58:00,
2013-02-25 07:03:00,32.4,25.3,29.97,WNW,292,0.0,0.0,75,0.00,BKN,,0.00,WeatherDisplay:10.37,2013-02-25 13:03:00,
2013-02-25 07:08:00,32.4,25.3,29.97,WNW,292,0.0,0.0,75,0.00,BKN,,0.00,WeatherDisplay:10.37,2013-02-25 13:08:00,
2013-02-25 07:13:00,32.7,26.0,29.99,WNW,292,0.0,0.0,76,0.00,BKN,,0.00,WeatherDisplay:10.37,2013-02-25 13:13:00,
2013-02-25 07:18:00,32.7,26.0,29.99,WNW,292,0.0,0.0,76,0.00,BKN,,0.00,WeatherDisplay:10.37,2013-02-25 13:18:00,
2013-02-25 07:23:00,33.1,26.3,29.99,WNW,292,0.0,0.0,76,0.00,BKN,,0.00,WeatherDisplay:10.37,2013-02-25 13:23:00,
2013-02-25 07:28:00,33.3,26.5,29.99,WNW,292,0.0,0.0,76,0.00,BKN,,0.00,WeatherDisplay:10.37,2013-02-25 13:28:00,
2013-02-25 07:33:00,33.4,26.7,29.99,WNW,292,0.0,0.0,76,0.00,BKN,,0.00,WeatherDisplay:10.37,2013-02-25 13:33:00,
2013-02-25 07:39:00,33.6,26.9,29.99,WNW,292,0.0,0.0,76,0.00,BKN,,0.00,WeatherDisplay:10.37,2013-02-25 13:39:00,
2013-02-25 07:44:00,34.0,26.9,29.99,WNW,292,0.0,0.0,75,0.00,BKN,,0.00,WeatherDisplay:10.37,2013-02-25 13:44:00,
2013-02-25 07:49:00,34.0,26.9,29.99,WNW,292,0.0,0.0,75,0.00,BKN,,0.00,WeatherDisplay:10.37,2013-02-25 13:49:00,
2013-02-25 07:51:00,35.1,27.3,29.99,WNW,292,0.0,0.0,73,0.00,BKN,,0.00,WeatherDisplay:10.37,2013-02-25 13:51:00,
2013-02-25 07:54:00,34.3,26.9,29.99,WNW,292,0.0,0.0,74,0.00,BKN,,0.00,WeatherDisplay:10.37,2013-02-25 13:54:00,
2013-02-25 07:59:00,35.1,27.3,29.99,WNW,292,0.0,0.0,73,0.00,BKN,,0.00,WeatherDisplay:10.37,2013-02-25 13:59:00,
2013-02-25 08:04:00,35.2,27.4,29.99,WNW,292,0.0,0.0,73,0.00,BKN,,0.00,WeatherDisplay:10.37,2013-02-25 14:04:00,
2013-02-25 08:09:00,35.4,27.6,29.99,WNW,292,0.0,0.0,73,0.00,BKN,,0.00,WeatherDisplay:10.37,2013-02-25 14:09:00,
2013-02-25 08:14:00,36.0,27.8,29.99,WNW,292,0.0,0.0,72,0.00,BKN,,0.00,WeatherDisplay:10.37,2013-02-25 14:14:00,
2013-02-25 08:19:00,36.5,27.6,29.99,WNW,292,0.0,0.0,70,0.00,BKN,,0.00,WeatherDisplay:10.37,2013-02-25 14:19:00,
2013-02-25 08:24:00,36.9,28.0,29.99,WNW,292,0.0,0.0,70,0.00,BKN,,0.00,WeatherDisplay:10.37,2013-02-25 14:24:00,
2013-02-25 08:29:00,37.6,28.7,29.99,WNW,292,0.0,0.0,70,0.00,BKN,,0.00,WeatherDisplay:10.37,2013-02-25 14:29:00,
2013-02-25 08:34:00,37.9,28.3,30.00,WNW,292,0.0,0.0,68,0.00,BKN,,0.00,WeatherDisplay:10.37,2013-02-25 14:34:00,
2013-02-25 08:39:00,38.5,28.5,30.00,WNW,292,0.0,0.0,67,0.00,BKN,,0.00,WeatherDisplay:10.37,2013-02-25 14:39:00,
2013-02-25 08:44:00,38.7,28.3,30.00,WNW,292,0.0,0.0,66,0.00,BKN,,0.00,WeatherDisplay:10.37,2013-02-25 14:44:00,
2013-02-25 08:49:00,39.0,28.2,30.00,WNW,292,0.0,0.0,65,0.00,BKN,,0.00,WeatherDisplay:10.37,2013-02-25 14:49:00,
2013-02-25 08:54:00,39.4,28.2,30.00,WNW,292,0.0,0.0,64,0.00,BKN,,0.00,WeatherDisplay:10.37,2013-02-25 14:54:00,
2013-02-25 08:59:00,39.7,28.5,30.00,WNW,292,0.0,0.0,64,0.00,BKN,,0.00,WeatherDisplay:10.37,2013-02-25 14:59:00,
2013-02-25 09:04:00,39.9,28.3,30.00,ESE,112,0.0,0.2,63,0.00,BKN,,0.00,WeatherDisplay:10.37,2013-02-25 15:04:00,
2013-02-25 09:09:00,40.5,28.8,30.00,ENE,68,4.6,4.6,63,0.00,BKN,,0.00,WeatherDisplay:10.37,2013-02-25 15:09:00,
2013-02-25 09:14:00,40.6,28.6,29.99,ENE,68,1.7,1.7,62,0.00,BKN,,0.00,WeatherDisplay:10.37,2013-02-25 15:14:00,
2013-02-25 09:19:00,41.2,28.7,29.99,NNE,22,0.0,1.3,61,0.00,BKN,,0.00,WeatherDisplay:10.37,2013-02-25 15:19:00,
2013-02-25 09:24:00,41.4,28.9,29.99,NNE,22,0.0,1.3,61,0.00,BKN,,0.00,WeatherDisplay:10.37,2013-02-25 15:24:00,
2013-02-25 09:29:00,42.1,29.6,29.99,NNE,22,0.0,1.3,61,0.26,RA,,0.26,WeatherDisplay:10.37,2013-02-25 15:29:00,
2013-02-25 09:34:00,42.1,28.8,29.99,NNE,22,0.0,1.3,59,0.26,RA,,0.26,WeatherDisplay:10.37,2013-02-25 15:34:00,
2013-02-25 09:39:00,42.6,28.9,29.99,NNE,22,0.0,0.0,58,0.26,BKN,,0.26,WeatherDisplay:10.37,2013-02-25 15:39:00,
2013-02-25 09:44:00,42.6,28.9,29.99,NNE,22,0.0,0.0,58,0.26,BKN,,0.26,WeatherDisplay:10.37,2013-02-25 15:44:00,
2013-02-25 09:49:00,43.2,29.4,29.99,NNE,22,0.0,0.0,58,0.26,BKN,,0.26,WeatherDisplay:10.37,2013-02-25 15:49:00,
2013-02-25 09:54:00,43.7,29.5,29.98,NNE,22,0.0,0.0,57,0.26,BKN,,0.26,WeatherDisplay:10.37,2013-02-25 15:54:00,
2013-02-25 09:59:00,44.1,28.9,29.98,NNE,22,0.0,0.0,55,0.26,BKN,,0.26,WeatherDisplay:10.37,2013-02-25 15:59:00,
2013-02-25 10:04:00,44.1,28.9,29.98,NNE,22,0.0,0.0,55,0.00,BKN,,0.26,WeatherDisplay:10.37,2013-02-25 16:04:00,
2013-02-25 10:09:00,44.6,29.4,29.98,NNE,22,0.0,0.0,55,0.00,BKN,,0.26,WeatherDisplay:10.37,2013-02-25 16:09:00,
2013-02-25 10:14:00,45.0,29.3,29.98,NNE,22,0.0,0.0,54,0.00,BKN,,0.26,WeatherDisplay:10.37,2013-02-25 16:14:00,
2013-02-25 10:19:00,45.1,29.5,29.98,NNE,22,0.0,0.0,54,0.00,BKN,,0.26,WeatherDisplay:10.37,2013-02-25 16:19:00,
2013-02-25 10:24:00,45.3,29.6,29.98,NNE,22,0.0,0.0,54,0.00,BKN,,0.26,WeatherDisplay:10.37,2013-02-25 16:24:00,
2013-02-25 10:29:00,45.7,29.5,29.98,NNE,22,0.0,0.0,53,0.00,BKN,,0.26,WeatherDisplay:10.37,2013-02-25 16:29:00,
2013-02-25 10:34:00,45.5,28.9,29.98,NNE,22,0.0,0.0,52,0.00,BKN,,0.26,WeatherDisplay:10.37,2013-02-25 16:34:00,
2013-02-25 10:39:00,45.7,29.5,29.98,NNE,22,0.0,0.0,53,0.00,BKN,,0.26,WeatherDisplay:10.37,2013-02-25 16:39:00,
2013-02-25 10:44:00,46.2,30.0,29.98,NNE,22,0.0,0.0,53,0.00,BKN,,0.26,WeatherDisplay:10.37,2013-02-25 16:44:00,
2013-02-25 10:49:00,46.6,29.9,29.98,ENE,59,2.0,6.0,52,0.00,BKN,,0.26,WeatherDisplay:10.37,2013-02-25 16:49:00,
2013-02-25 10:54:00,46.6,29.9,29.98,ENE,73,2.0,4.0,52,0.00,BKN,,0.26,WeatherDisplay:10.37,2013-02-25 16:54:00,
2013-02-25 10:59:00,46.9,30.2,29.97,ENE,72,1.0,3.0,52,0.00,BKN,,0.26,WeatherDisplay:10.37,2013-02-25 16:59:00,
2013-02-25 11:04:00,46.9,29.7,29.97,East,90,1.0,3.0,51,0.00,BKN,,0.26,WeatherDisplay:10.37,2013-02-25 17:04:00,
2013-02-25 11:09:00,46.9,29.7,29.97,ENE,72,2.0,3.0,51,0.00,BKN,,0.26,WeatherDisplay:10.37,2013-02-25 17:09:00,
2013-02-25 11:14:00,47.3,30.1,29.97,ENE,63,2.0,4.0,51,0.00,BKN,,0.26,WeatherDisplay:10.37,2013-02-25 17:14:00,
2013-02-25 11:19:00,47.7,29.9,29.97,ENE,64,1.0,2.0,50,0.00,BKN,,0.26,WeatherDisplay:10.37,2013-02-25 17:19:00,
2013-02-25 11:24:00,47.7,29.4,29.97,NE,50,1.0,3.0,49,0.00,BKN,,0.26,WeatherDisplay:10.37,2013-02-25 17:24:00,
2013-02-25 11:29:00,47.5,29.3,29.97,ENE,74,2.0,7.0,49,0.00,BKN,,0.26,WeatherDisplay:10.37,2013-02-25 17:29:00,
2013-02-25 11:34:00,47.1,28.9,29.97,East,80,2.0,6.0,49,0.00,BKN,,0.26,WeatherDisplay:10.37,2013-02-25 17:34:00,
2013-02-25 11:39:00,47.3,29.6,29.96,NE,46,2.0,5.0,50,0.00,BKN,,0.26,WeatherDisplay:10.37,2013-02-25 17:39:00,
2013-02-25 11:44:00,47.5,29.7,29.96,NW,306,2.0,2.0,50,0.00,BKN,,0.26,WeatherDisplay:10.37,2013-02-25 17:44:00,
2013-02-25 11:49:00,47.3,29.6,29.96,SSW,205,1.0,3.0,50,0.00,BKN,,0.26,WeatherDisplay:10.37,2013-02-25 17:49:00,
2013-02-25 11:54:00,47.5,30.2,29.96,East,86,1.0,2.0,51,0.00,BKN,,0.26,WeatherDisplay:10.37,2013-02-25 17:54:00,
2013-02-25 11:59:00,47.7,30.4,29.94,East,83,1.0,2.0,51,0.00,BKN,,0.26,WeatherDisplay:10.37,2013-02-25 17:59:00,
2013-02-25 12:04:00,47.7,30.4,29.94,East,90,1.0,2.0,51,0.00,BKN,,0.26,WeatherDisplay:10.37,2013-02-25 18:04:00,
2013-02-25 12:09:00,48.0,30.7,29.94,East,90,1.0,2.0,51,0.00,BKN,,0.26,WeatherDisplay:10.37,2013-02-25 18:09:00,
2013-02-25 12:14:00,48.0,30.7,29.94,East,90,1.0,2.0,51,0.00,BKN,,0.26,WeatherDisplay:10.37,2013-02-25 18:14:00,
2013-02-25 12:19:00,48.4,30.6,29.92,East,90,1.0,2.0,50,0.00,BKN,,0.26,WeatherDisplay:10.37,2013-02-25 18:19:00,
2013-02-25 12:24:00,48.6,30.7,29.92,East,90,1.0,2.0,50,0.00,BKN,,0.26,WeatherDisplay:10.37,2013-02-25 18:24:00,
2013-02-25 12:29:00,48.4,31.1,29.92,East,90,0.0,2.0,51,0.00,BKN,,0.26,WeatherDisplay:10.37,2013-02-25 18:29:00,
2013-02-25 12:34:00,48.2,30.4,29.92,East,90,0.0,0.0,50,0.00,BKN,,0.26,WeatherDisplay:10.37,2013-02-25 18:34:00,
2013-02-25 12:39:00,47.8,30.1,29.92,East,90,0.0,0.0,50,0.00,BKN,,0.26,WeatherDisplay:10.37,2013-02-25 18:39:00,
2013-02-25 12:44:00,47.8,30.6,29.92,East,90,0.0,0.0,51,0.00,BKN,,0.26,WeatherDisplay:10.37,2013-02-25 18:44:00,
2013-02-25 12:49:00,47.8,30.6,29.92,East,90,0.0,0.0,51,0.00,BKN,,0.26,WeatherDisplay:10.37,2013-02-25 18:49:00,
2013-02-25 12:54:00,47.8,30.6,29.92,East,90,0.0,0.0,51,0.00,BKN,,0.26,WeatherDisplay:10.37,2013-02-25 18:54:00,
2013-02-25 12:59:00,47.8,31.0,29.91,East,90,0.0,0.0,52,0.00,BKN,,0.26,WeatherDisplay:10.37,2013-02-25 18:59:00,
2013-02-25 13:04:00,47.8,31.0,29.91,East,90,0.0,0.0,52,0.00,BKN,,0.26,WeatherDisplay:10.37,2013-02-25 19:04:00,
2013-02-25 13:09:00,47.8,31.5,29.91,East,90,0.0,0.0,53,0.00,BKN,,0.26,WeatherDisplay:10.37,2013-02-25 19:09:00,
2013-02-25 13:14:00,47.7,31.4,29.91,East,90,0.0,0.0,53,0.00,OVC,,0.26,WeatherDisplay:10.37,2013-02-25 19:14:00,
2013-02-25 13:19:00,47.7,31.8,29.89,East,90,0.0,0.0,54,0.00,OVC,,0.26,WeatherDisplay:10.37,2013-02-25 19:19:00,
2013-02-25 13:24:00,47.7,31.8,29.89,East,90,0.0,0.0,54,0.00,OVC,,0.26,WeatherDisplay:10.37,2013-02-25 19:24:00,
2013-02-25 13:29:00,47.8,31.5,29.89,East,90,0.0,0.0,53,0.00,OVC,,0.26,WeatherDisplay:10.37,2013-02-25 19:29:00,
2013-02-25 13:34:00,47.8,31.5,29.89,East,90,0.0,0.0,53,0.00,OVC,,0.26,WeatherDisplay:10.37,2013-02-25 19:34:00,
2013-02-25 13:39:00,48.0,31.7,29.88,East,90,0.0,0.0,53,0.00,OVC,,0.26,WeatherDisplay:10.37,2013-02-25 19:39:00,
2013-02-25 13:44:00,48.0,31.7,29.88,East,90,0.0,0.0,53,0.00,OVC,,0.26,WeatherDisplay:10.37,2013-02-25 19:44:00,
2013-02-25 13:49:00,48.0,31.7,29.88,East,90,0.0,0.0,53,0.00,OVC,,0.26,WeatherDisplay:10.37,2013-02-25 19:49:00,
2013-02-25 13:54:00,48.2,31.9,29.88,East,90,0.0,0.0,53,0.00,OVC,,0.26,WeatherDisplay:10.37,2013-02-25 19:54:00,
2013-02-25 13:59:00,48.4,31.5,29.85,East,90,0.0,0.0,52,0.00,OVC,,0.26,WeatherDisplay:10.37,2013-02-25 19:59:00,
2013-02-25 14:04:00,48.0,31.2,29.85,East,90,0.0,0.0,52,0.00,OVC,,0.26,WeatherDisplay:10.37,2013-02-25 20:04:00,
2013-02-25 14:09:00,47.8,31.0,29.85,East,90,0.0,0.0,52,0.00,OVC,,0.26,WeatherDisplay:10.37,2013-02-25 20:09:00,
2013-02-25 14:14:00,47.8,31.5,29.85,East,90,0.0,0.0,53,0.00,OVC,,0.26,WeatherDisplay:10.37,2013-02-25 20:14:00,
2013-02-25 14:19:00,47.8,31.5,29.84,East,90,0.0,0.0,53,0.00,OVC,,0.26,WeatherDisplay:10.37,2013-02-25 20:19:00,
2013-02-25 14:24:00,48.0,32.2,29.84,East,90,0.0,0.0,54,0.00,OVC,,0.26,WeatherDisplay:10.37,2013-02-25 20:24:00,
2013-02-25 14:29:00,47.8,31.5,29.84,East,90,0.0,0.0,53,0.00,OVC,,0.26,WeatherDisplay:10.37,2013-02-25 20:29:00,
2013-02-25 14:34:00,47.8,32.0,29.84,East,90,0.0,0.0,54,0.00,OVC,,0.26,WeatherDisplay:10.37,2013-02-25 20:34:00,
2013-02-25 14:39:00,47.3,31.0,29.83,East,90,0.0,0.0,53,0.00,OVC,,0.26,WeatherDisplay:10.37,2013-02-25 20:39:00,
2013-02-25 14:44:00,47.3,31.5,29.83,East,94,0.0,0.0,54,0.00,OVC,,0.26,WeatherDisplay:10.37,2013-02-25 20:44:00,
2013-02-25 14:49:00,47.1,30.9,29.83,ESE,114,0.0,1.0,53,0.00,OVC,,0.26,WeatherDisplay:10.37,2013-02-25 20:49:00,
2013-02-25 14:54:00,46.9,31.1,29.82,SW,229,0.0,1.0,54,0.00,OVC,,0.26,WeatherDisplay:10.37,2013-02-25 20:54:00,
2013-02-25 14:59:00,46.9,31.1,29.82,NNW,336,0.0,1.0,54,0.00,OVC,,0.26,WeatherDisplay:10.37,2013-02-25 20:59:00,
2013-02-25 15:04:00,46.6,31.3,29.82,NNE,31,1.0,2.0,55,0.00,OVC,,0.26,WeatherDisplay:10.37,2013-02-25 21:04:00,
2013-02-25 15:09:00,46.4,31.1,29.82,ENE,69,1.0,2.0,55,0.00,OVC,,0.26,WeatherDisplay:10.37,2013-02-25 21:09:00,
2013-02-25 15:14:00,46.4,31.1,29.79,WSW,239,1.0,2.0,55,0.00,OVC,,0.26,WeatherDisplay:10.37,2013-02-25 21:14:00,
2013-02-25 15:19:00,46.4,31.1,29.79,West,271,1.0,2.0,55,0.00,OVC,,0.26,WeatherDisplay:10.37,2013-02-25 21:19:00,
2013-02-25 15:24:00,46.6,31.3,29.79,SE,138,1.0,3.0,55,0.00,OVC,,0.26,WeatherDisplay:10.37,2013-02-25 21:24:00,
2013-02-25 15:29:00,46.4,31.1,29.79,SW,225,1.0,3.0,55,0.00,OVC,,0.26,WeatherDisplay:10.37,2013-02-25 21:29:00,
2013-02-25 15:34:00,46.4,31.1,29.81,SSW,210,1.0,2.0,55,0.00,OVC,,0.26,WeatherDisplay:10.37,2013-02-25 21:34:00,
2013-02-25 15:39:00,46.4,31.1,29.81,East,98,0.0,2.0,55,0.00,OVC,,0.26,WeatherDisplay:10.37,2013-02-25 21:39:00,
2013-02-25 15:44:00,46.4,31.1,29.81,ENE,75,1.0,2.0,55,0.00,OVC,,0.26,WeatherDisplay:10.37,2013-02-25 21:44:00,
2013-02-25 15:49:00,46.4,31.1,29.81,NE,45,1.0,2.0,55,0.00,OVC,,0.26,WeatherDisplay:10.37,2013-02-25 21:49:00,
2013-02-25 15:54:00,46.2,30.9,29.80,East,83,0.0,1.0,55,0.00,OVC,,0.26,WeatherDisplay:10.37,2013-02-25 21:54:00,
2013-02-25 15:59:00,46.0,30.8,29.80,ESE,103,0.0,1.0,55,0.00,OVC,,0.26,WeatherDisplay:10.37,2013-02-25 21:59:00,
2013-02-25 16:04:00,46.2,30.9,29.80,ENE,66,0.0,0.0,55,0.00,OVC,,0.26,WeatherDisplay:10.37,2013-02-25 22:04:00,
2013-02-25 16:09:00,46.2,30.9,29.80,WSW,248,0.0,0.0,55,0.00,OVC,,0.26,WeatherDisplay:10.37,2013-02-25 22:09:00,
2013-02-25 16:14:00,47.7,31.4,29.79,SW,229,0.0,2.0,53,0.00,OVC,,0.26,WeatherDisplay:10.37,2013-02-25 22:14:00,
2013-02-25 16:19:00,46.9,30.7,29.79,SSW,195,0.0,2.0,53,0.00,OVC,,0.26,WeatherDisplay:10.37,2013-02-25 22:19:00,
2013-02-25 16:24:00,46.2,30.5,29.79,SSE,152,0.0,2.0,54,0.00,OVC,,0.26,WeatherDisplay:10.37,2013-02-25 22:24:00,
2013-02-25 16:29:00,46.2,30.9,29.79,SSE,148,0.0,2.0,55,0.00,OVC,,0.26,WeatherDisplay:10.37,2013-02-25 22:29:00,
2013-02-25 16:34:00,45.7,30.4,29.78,SE,145,0.0,2.0,55,0.00,OVC,,0.26,WeatherDisplay:10.37,2013-02-25 22:34:00,
2013-02-25 16:39:00,45.7,30.9,29.78,SE,134,0.0,2.0,56,0.00,OVC,,0.26,WeatherDisplay:10.37,2013-02-25 22:39:00,
2013-02-25 16:44:00,45.7,30.9,29.78,ESE,115,0.0,0.0,56,0.00,OVC,,0.26,WeatherDisplay:10.37,2013-02-25 22:44:00,
2013-02-25 16:49:00,45.5,30.7,29.78,North,350,0.0,0.0,56,0.00,OVC,,0.26,WeatherDisplay:10.37,2013-02-25 22:49:00,
2013-02-25 16:54:00,45.5,31.1,29.77,North,2,0.0,0.0,57,0.00,OVC,,0.26,WeatherDisplay:10.37,2013-02-25 22:54:00,
2013-02-25 16:59:00,45.1,30.8,29.77,East,86,0.0,0.0,57,0.00,OVC,,0.26,WeatherDisplay:10.37,2013-02-25 22:59:00,
2013-02-25 17:04:00,45.1,31.2,29.77,SSE,157,0.0,1.0,58,0.00,OVC,,0.26,WeatherDisplay:10.37,2013-02-25 23:04:00,
2013-02-25 17:09:00,44.8,30.9,29.77,West,265,0.0,1.0,58,0.00,OVC,,0.26,WeatherDisplay:10.37,2013-02-25 23:09:00,
2013-02-25 17:14:00,44.4,31.0,29.75,SE,124,0.0,2.0,59,0.00,OVC,,0.26,WeatherDisplay:10.37,2013-02-25 23:14:00,
2013-02-25 17:19:00,44.1,30.6,29.75,ENE,68,0.0,0.4,59,0.00,OVC,,0.26,WeatherDisplay:10.37,2013-02-25 23:19:00,
2013-02-25 17:24:00,43.9,30.5,29.75,East,92,0.0,2.0,59,0.00,OVC,,0.26,WeatherDisplay:10.37,2013-02-25 23:24:00,
2013-02-25 17:29:00,43.5,30.1,29.75,NE,48,0.0,2.0,59,0.00,OVC,,0.26,WeatherDisplay:10.37,2013-02-25 23:29:00,
2013-02-25 17:34:00,43.3,30.4,29.72,NW,304,1.0,2.0,60,0.00,OVC,,0.26,WeatherDisplay:10.37,2013-02-25 23:34:00,
2013-02-25 17:39:00,43.2,30.6,29.72,WNW,284,0.0,1.0,61,0.00,OVC,,0.26,WeatherDisplay:10.37,2013-02-25 23:39:00,
2013-02-25 17:44:00,43.0,30.8,29.72,WSW,244,0.0,1.0,62,0.00,OVC,,0.26,WeatherDisplay:10.37,2013-02-25 23:44:00,
2013-02-25 17:49:00,43.0,30.8,29.72,East,93,0.0,1.0,62,0.00,OVC,,0.26,WeatherDisplay:10.37,2013-02-25 23:49:00,
2013-02-25 17:54:00,42.6,30.5,29.73,ENE,62,0.0,2.0,62,0.00,OVC,,0.26,WeatherDisplay:10.37,2013-02-25 23:54:00,
2013-02-25 17:59:00,42.6,30.5,29.73,NW,315,0.0,2.0,62,0.00,OVC,,0.26,WeatherDisplay:10.37,2013-02-25 23:59:00,
2013-02-25 18:04:00,42.3,30.6,29.73,NNE,18,0.0,1.0,63,0.00,OVC,,0.26,WeatherDisplay:10.37,2013-02-26 00:04:00,
2013-02-25 18:09:00,42.3,30.6,29.73,East,85,0.0,1.0,63,0.00,OVC,,0.26,WeatherDisplay:10.37,2013-02-26 00:09:00,
2013-02-25 18:14:00,42.1,30.8,29.73,East,82,0.0,2.0,64,0.00,OVC,,0.26,WeatherDisplay:10.37,2013-02-26 00:14:00,
2013-02-25 18:19:00,42.3,30.9,29.73,ENE,64,0.0,2.0,64,0.00,OVC,,0.26,WeatherDisplay:10.37,2013-02-26 00:19:00,
2013-02-25 18:24:00,42.1,30.8,29.73,ENE,59,0.0,0.0,64,0.00,OVC,,0.26,WeatherDisplay:10.37,2013-02-26 00:24:00,
2013-02-25 18:29:00,42.1,30.8,29.73,NNW,341,0.0,2.0,64,0.00,OVC,,0.26,WeatherDisplay:10.37,2013-02-26 00:29:00,
2013-02-25 18:34:00,41.9,31.0,29.74,NNW,332,0.0,2.0,65,0.00,OVC,,0.26,WeatherDisplay:10.37,2013-02-26 00:34:00,
2013-02-25 18:39:00,42.1,31.2,29.74,North,356,0.0,1.0,65,0.00,OVC,,0.26,WeatherDisplay:10.37,2013-02-26 00:39:00,
2013-02-25 18:44:00,42.1,31.2,29.74,NNW,335,0.0,1.0,65,0.00,OVC,,0.26,WeatherDisplay:10.37,2013-02-26 00:44:00,
2013-02-25 18:49:00,42.1,31.2,29.74,NNW,335,0.0,1.0,65,0.00,OVC,,0.26,WeatherDisplay:10.37,2013-02-26 00:49:00,
2013-02-25 18:54:00,42.3,31.3,29.75,ESE,105,0.0,0.0,65,0.00,OVC,,0.26,WeatherDisplay:10.37,2013-02-26 00:54:00,
2013-02-25 18:59:00,42.1,31.2,29.75,SE,125,0.0,2.0,65,0.00,OVC,,0.26,WeatherDisplay:10.37,2013-02-26 00:59:00,
2013-02-25 19:04:00,42.3,31.7,29.75,WSW,248,0.0,0.2,66,0.00,OVC,,0.26,WeatherDisplay:10.37,2013-02-26 01:04:00,
2013-02-25 19:09:00,42.1,31.5,29.75,ENE,68,0.0,0.3,66,0.00,OVC,,0.26,WeatherDisplay:10.37,2013-02-26 01:09:00,
2013-02-25 19:14:00,42.1,31.9,29.75,WSW,248,0.0,0.2,67,0.00,OVC,,0.26,WeatherDisplay:10.37,2013-02-26 01:14:00,
2013-02-25 19:19:00,42.1,31.9,29.75,ESE,112,0.0,0.0,67,0.00,OVC,,0.26,WeatherDisplay:10.37,2013-02-26 01:19:00,
2013-02-25 19:24:00,41.9,32.1,29.75,NNW,338,0.0,0.1,68,0.00,OVC,,0.26,WeatherDisplay:10.37,2013-02-26 01:24:00,
2013-02-25 19:29:00,41.9,32.1,29.75,NNW,338,1.3,1.3,68,0.00,OVC,,0.26,WeatherDisplay:10.37,2013-02-26 01:29:00,
2013-02-25 19:34:00,41.9,32.1,29.76,North,0,1.2,1.2,68,0.00,OVC,,0.26,WeatherDisplay:10.37,2013-02-26 01:34:00,
2013-02-25 19:39:00,41.9,32.1,29.76,NNE,22,0.0,0.1,68,0.00,OVC,,0.26,WeatherDisplay:10.37,2013-02-26 01:39:00,
2013-02-25 19:44:00,41.7,31.9,29.76,East,90,0.0,0.0,68,0.00,OVC,,0.26,WeatherDisplay:10.37,2013-02-26 01:44:00,
2013-02-25 19:49:00,41.5,31.8,29.76,North,0,0.0,0.2,68,0.00,OVC,,0.26,WeatherDisplay:10.37,2013-02-26 01:49:00,
2013-02-25 19:54:00,41.5,31.8,29.76,WNW,292,0.0,0.3,68,0.00,OVC,,0.26,WeatherDisplay:10.37,2013-02-26 01:54:00,
2013-02-25 19:59:00,41.5,31.8,29.76,SW,225,1.2,1.2,68,0.00,OVC,,0.26,WeatherDisplay:10.37,2013-02-26 01:59:00,
2013-02-25 20:04:00,41.5,31.8,29.76,ESE,112,0.0,0.1,68,0.00,OVC,,0.26,WeatherDisplay:10.37,2013-02-26 02:04:00,
2013-02-25 20:09:00,41.5,31.8,29.76,NNE,22,0.0,0.1,68,0.00,-RA,,0.26,WeatherDisplay:10.37,2013-02-26 02:09:00,
2013-02-25 20:14:00,41.5,31.8,29.77,NE,45,0.0,0.1,68,0.00,-RA,,0.26,WeatherDisplay:10.37,2013-02-26 02:14:00,
2013-02-25 20:19:00,41.5,31.4,29.77,NE,45,0.0,0.2,67,0.00,-RA,,0.26,WeatherDisplay:10.37,2013-02-26 02:19:00,
2013-02-25 20:24:00,41.5,31.4,29.77,NNE,22,0.0,0.3,67,0.00,-RA,,0.26,WeatherDisplay:10.37,2013-02-26 02:24:00,
2013-02-25 20:29:00,41.5,31.0,29.77,NW,315,0.0,0.3,66,0.00,-RA,,0.26,WeatherDisplay:10.37,2013-02-26 02:29:00,
2013-02-25 20:34:00,41.7,31.2,29.75,North,352,0.0,1.0,66,0.00,-RA,,0.26,WeatherDisplay:10.37,2013-02-26 02:34:00,
2013-02-25 20:39:00,41.5,31.4,29.75,NNE,22,0.0,0.2,67,0.00,-RA,,0.26,WeatherDisplay:10.37,2013-02-26 02:39:00,
2013-02-25 20:44:00,41.4,31.2,29.75,North,0,0.0,0.2,67,0.00,-RA,,0.26,WeatherDisplay:10.37,2013-02-26 02:44:00,
2013-02-25 20:49:00,41.5,31.8,29.75,ENE,68,1.3,1.3,68,0.00,-RA,,0.26,WeatherDisplay:10.37,2013-02-26 02:49:00,
2013-02-25 20:54:00,41.5,31.8,29.75,ESE,112,1.1,1.1,68,0.00,-RA,,0.26,WeatherDisplay:10.37,2013-02-26 02:54:00,
2013-02-25 20:59:00,41.4,31.6,29.75,NNW,338,0.0,0.2,68,0.00,-RA,,0.26,WeatherDisplay:10.37,2013-02-26 02:59:00,
2013-02-25 21:04:00,41.2,31.4,29.75,WNW,292,2.4,2.4,68,0.00,-RA,,0.26,WeatherDisplay:10.37,2013-02-26 03:04:00,
2013-02-25 21:09:00,41.2,31.8,29.75,NNW,338,2.3,2.3,69,0.00,OVC,,0.26,WeatherDisplay:10.37,2013-02-26 03:09:00,
2013-02-25 21:14:00,40.6,31.6,29.72,ESE,112,0.0,0.3,70,0.00,OVC,,0.26,WeatherDisplay:10.37,2013-02-26 03:14:00,
2013-02-25 21:19:00,40.6,31.6,29.72,SW,225,0.0,0.0,70,0.00,OVC,,0.26,WeatherDisplay:10.37,2013-02-26 03:19:00,
2013-02-25 21:24:00,40.1,32.5,29.72,NNE,22,1.2,1.2,74,0.03,RA,,0.28,WeatherDisplay:10.37,2013-02-26 03:24:00,
2013-02-25 21:29:00,39.6,32.0,29.72,NNW,338,0.0,0.2,74,0.03,RA,,0.28,WeatherDisplay:10.37,2013-02-26 03:29:00,
2013-02-25 21:34:00,39.2,32.3,29.71,ENE,68,1.1,1.1,76,0.06,RA,,0.31,WeatherDisplay:10.37,2013-02-26 03:34:00,
2013-02-25 21:39:00,39.0,32.4,29.71,NNE,22,1.1,1.1,77,0.06,RA,,0.31,WeatherDisplay:10.37,2013-02-26 03:39:00,
2013-02-25 21:44:00,38.7,32.4,29.71,NE,45,0.0,0.4,78,0.09,RA,,0.34,WeatherDisplay:10.37,2013-02-26 03:44:00,
2013-02-25 21:49:00,38.7,32.4,29.71,North,5,0.0,2.0,78,0.00,RA,,0.34,WeatherDisplay:10.37,2013-02-26 03:49:00,
2013-02-25 21:54:00,38.3,32.0,29.71,WSW,248,1.5,1.5,78,0.11,-RA,,0.37,WeatherDisplay:10.37,2013-02-26 03:54:00,
2013-02-25 21:59:00,38.1,32.2,29.71,SW,225,0.0,0.4,79,0.11,-RA,,0.37,WeatherDisplay:10.37,2013-02-26 03:59:00,
2013-02-25 22:04:00,38.1,32.5,29.71,North,0,0.0,0.3,80,0.11,-RA,,0.37,WeatherDisplay:10.37,2013-02-26 04:04:00,
2013-02-25 22:09:00,37.9,32.3,29.71,ENE,68,0.0,0.2,80,0.11,-RA,,0.37,WeatherDisplay:10.37,2013-02-26 04:09:00,
2013-02-25 22:14:00,37.8,32.1,29.68,ESE,112,0.0,0.3,80,0.11,-RA,,0.37,WeatherDisplay:10.37,2013-02-26 04:14:00,
2013-02-25 22:19:00,37.8,32.5,29.68,East,90,1.4,1.4,81,0.11,-RA,,0.37,WeatherDisplay:10.37,2013-02-26 04:19:00,
2013-02-25 22:24:00,37.6,32.3,29.68,NE,45,1.3,1.3,81,0.11,-RA,,0.40,WeatherDisplay:10.37,2013-02-26 04:24:00,
2013-02-25 22:29:00,37.4,32.1,29.68,NNE,22,1.1,1.1,81,0.11,-RA,,0.40,WeatherDisplay:10.37,2013-02-26 04:29:00,
2013-02-25 22:34:00,37.6,32.3,29.68,SE,135,0.0,0.4,81,0.09,-RA,,0.40,WeatherDisplay:10.37,2013-02-26 04:34:00,
2013-02-25 22:39:00,37.6,32.3,29.68,North,358,0.0,2.0,81,0.00,-RA,,0.40,WeatherDisplay:10.37,2013-02-26 04:39:00,
2013-02-25 22:44:00,37.2,32.2,29.68,West,270,2.6,2.6,82,0.06,-RA,,0.40,WeatherDisplay:10.37,2013-02-26 04:44:00,
2013-02-25 22:49:00,37.0,32.1,29.68,NW,315,2.7,2.7,82,0.06,-RA,,0.40,WeatherDisplay:10.37,2013-02-26 04:49:00,
2013-02-25 22:54:00,37.0,32.1,29.65,ESE,112,0.0,0.4,82,0.06,-RA,,0.43,WeatherDisplay:10.37,2013-02-26 04:54:00,
2013-02-25 22:59:00,36.9,31.9,29.65,SSW,202,0.0,0.2,82,0.06,-RA,,0.43,WeatherDisplay:10.37,2013-02-26 04:59:00,
2013-02-25 23:00:00,36.9,31.9,29.65,WNW,292,1.4,1.4,82,0.06,-RA,,0.43,WeatherDisplay:10.37,2013-02-26 05:00:00,
2013-02-25 23:01:00,36.9,31.9,29.65,WNW,292,1.4,1.4,82,0.06,-RA,,0.43,WeatherDisplay:10.37,2013-02-26 05:01:00,
2013-02-25 23:06:00,36.9,31.9,29.65,South,180,0.0,0.5,82,0.06,-RA,,0.43,WeatherDisplay:10.37,2013-02-26 05:06:00,
2013-02-25 23:11:00,36.9,31.9,29.64,NW,315,3.4,3.4,82,0.06,-RA,,0.43,WeatherDisplay:10.37,2013-02-26 05:11:00,
2013-02-25 23:16:00,36.7,31.7,29.64,NNE,22,1.6,1.6,82,0.48,-RA,,0.85,WeatherDisplay:10.37,2013-02-26 05:16:00,
2013-02-25 23:21:00,36.9,31.9,29.64,NW,315,1.5,1.5,82,0.48,-RA,,0.85,WeatherDisplay:10.37,2013-02-26 05:21:00,
2013-02-25 23:26:00,36.9,32.2,29.64,SE,135,0.0,0.6,83,0.45,-RA,,0.85,WeatherDisplay:10.37,2013-02-26 05:26:00,
2013-02-25 23:31:00,36.5,31.8,29.62,ENE,68,0.0,0.5,83,0.45,-RA,,0.85,WeatherDisplay:10.37,2013-02-26 05:31:00,
2013-02-25 23:36:00,36.7,32.0,29.62,SSE,158,1.1,1.1,83,0.48,-RA,,0.88,WeatherDisplay:10.37,2013-02-26 05:36:00,
2013-02-25 23:41:00,36.5,32.1,29.62,East,90,2.7,2.7,84,0.48,-RA,,0.88,WeatherDisplay:10.37,2013-02-26 05:41:00,
2013-02-25 23:46:00,36.5,31.8,29.62,SE,135,2.3,2.3,83,0.48,-RA,,0.88,WeatherDisplay:10.37,2013-02-26 05:46:00,
2013-02-25 23:51:00,36.5,31.8,29.58,East,90,0.0,0.9,83,0.48,-RA,,0.88,WeatherDisplay:10.37,2013-02-26 05:51:00,
2013-02-25 23:56:00,36.5,31.8,29.58,SSW,202,2.3,2.3,83,0.48,-RA,,0.91,WeatherDisplay:10.37,2013-02-26 05:56:00,